KUIPER-00606

导读

基本信息
目录编号:
69289
目录名称:
KUIPER-00606
国际标识:
2026-118Y
轨道中心:
EARTH
卫星名称:
KUIPER-00606
卫星全名:
KUIPER-00606
卫星状态:
在轨 (已飞行106 天)
发射日期:
2026-05-29 UTC
国别 :
美国 (US)
星等 :
--
该卫星已列入 空间交会检测服务 Space Conjunction Data Service (SCDS) ,当前飞行风险评估等级: 无高风险
轨道信息
数据来源 国际轨道数据 AOE轨道数据
星历时间 2026-09-11T22:22:45+0800
13小时前
查看轨道信息
2026-09-10T08:00:00+0800
2天前
查看轨道信息
半长轴 7007.685km 7007.679km
偏心率 0.0000302 0.0000474
轨道倾角 51.904° 51.903°
近地点辐角 87.576° 104.466°
升交点赤经 13.553° 20.626°
平近点角 272.524° 10.735°
近地点 629.336km 629.209km
远地点 629.76km 629.875km
周期 97.302分钟 97.302分钟
每日圈数 14.799291 14.79931
详细信息
使用方式:
暂无
2D轨道图
3D轨道图
轨道高度分析图
轨道倾角分析图
轨道综合分析图
查看轨道综合分析图
与全量物体交会距离演化趋势
与全量物体交会风险概率演化趋势